User: anonymous
Location: Edmonton
(53.5500°N, 113.5000°W)
Time: 18:19:09
(UTC-06:00)
Language:

CZ-4C R/B - Orbit

View from above orbital plane
View from above orbital plane
View from above satellite
View from above satellite

Ground track
Ground track

The orbit data is extracted from the following two-line orbital elements,

1 36416U 10009D   14264.99549567 -.00000114  00000-0 -15242-4 0  7546
2 36416 063.4495 061.0131 0289296 000.1248 359.9813 13.69424022227536
Epoch (UTC): 21 September 2014 23:53:30
Eccentricity: 0.0289296
inclination: 63.4495°
perigee height: 788 km
apogee height: 1215 km
right ascension of ascending node: 61.0131°
argument of perigee: 0.1248°
revolutions per day: 13.69424022
mean anomaly at epoch: 359.9813°
orbit number at epoch: 22753

The dashed part of the orbit path shows where the satellite is in the earth's shadow,  

DLR